Location: Unspecified
(17.6330°N, 0.0000°E)
Time: 05:47:27
(UTC+00:00)

S-56A Canister/Altair - Pass Details

Date: 25 June 2019
Orbit: 633 x 2499 km, 38.9° (Epoch: 13 October)

Event Time Altitude Azimuth Distance (km) Brightness Sun altitude
Rises 13:45:26 0° 247° (WSW) 6,070 12.4 65.3°
Reaches altitude 10° 13:49:48 10° 251° (WSW) 4,923 12.1 64.3°
Maximum altitude 14:02:53 54° 325° (NW) 2,170 11.4 61.3°
Drops below altitude 10° 14:11:58 10° 41° (NE) 3,489 10.9 59.2°
Sets 14:14:34 0° 47° (NE) 4,236 11.2 58.7°
